| time (UTC) | temp F | wind direction | speed knots | gust knots | rain 1hr in | rain 24hr in | rain mn in | humidity % | barometer mb |
| 20260510192337 | 86 | 350 | 9.6 | 0.0 | 0.00 | 0.00 | 0.00 | 14 | 1011.0 |
| 20260510191336 | 86 | 350 | 9.6 | 0.0 | 0.00 | 0.00 | 0.00 | 13 | 1011.0 |
| 20260510190336 | 86 | 350 | 9.6 | 0.0 | 0.00 | 0.00 | 0.00 | 13 | 1011.0 |
| 20260510185335 | 86 | 350 | 9.6 | 0.0 | 0.00 | 0.00 | 0.00 | 13 | 1011.0 |
| 20260510184334 | 85 | 350 | 9.6 | 0.0 | 0.00 | 0.00 | 0.00 | 12 | 1011.0 |
| 20260510183334 | 85 | 350 | 9.6 | 0.0 | 0.00 | 0.00 | 0.00 | 13 | 1011.0 |
| 20260510182333 | 84 | 350 | 9.6 | 0.0 | 0.00 | 0.00 | 0.00 | 14 | 1012.0 |
| 20260510181331 | 84 | 350 | 9.6 | 0.0 | 0.00 | 0.00 | 0.00 | 15 | 1012.0 |
| 20260510180331 | 85 | 267 | 3.5 | 9.6 | 0.00 | 0.00 | 0.00 | 16 | 1012.0 |
| 20260510175330 | 83 | 267 | 3.5 | 9.6 | 0.00 | 0.00 | 0.00 | 17 | 1012.0 |
| 20260510174330 | 83 | 267 | 3.5 | 9.6 | 0.00 | 0.00 | 0.00 | 17 | 1012.0 |
| 20260510173329 | 83 | 267 | 3.5 | 9.6 | 0.00 | 0.00 | 0.00 | 16 | 1012.0 |
| 20260510172328 | 83 | 267 | 3.5 | 9.6 | 0.00 | 0.00 | 0.00 | 16 | 1012.0 |
| 20260510171328 | 83 | 267 | 3.5 | 9.6 | 0.00 | 0.00 | 0.00 | 14 | 1012.0 |
| 20260510170327 | 83 | 267 | 3.5 | 9.6 | 0.00 | 0.00 | 0.00 | 13 | 1012.0 |
| 20260510165326 | 83 | 267 | 3.5 | 9.6 | 0.00 | 0.00 | 0.00 | 13 | 1012.0 |
| 20260510164326 | 82 | 163 | 2.6 | 3.5 | 0.00 | 0.00 | 0.00 | 16 | 1012.0 |
| 20260510163325 | 81 | 163 | 2.6 | 3.5 | 0.00 | 0.00 | 0.00 | 17 | 1012.0 |
| 20260510162324 | 81 | 163 | 2.6 | 3.5 | 0.00 | 0.00 | 0.00 | 19 | 1013.0 |
| 20260510161324 | 81 | 163 | 2.6 | 3.5 | 0.00 | 0.00 | 0.00 | 21 | 1013.0 |
| 20260510160323 | 81 | 163 | 2.6 | 3.5 | 0.00 | 0.00 | 0.00 | 25 | 1013.0 |
| 20260510155323 | 81 | 163 | 2.6 | 3.5 | 0.00 | 0.00 | 0.00 | 30 | 1013.0 |
| 20260510154322 | 80 | 163 | 2.6 | 3.5 | 0.00 | 0.00 | 0.00 | 32 | 1014.0 |
| 20260510153322 | 79 | 163 | 2.6 | 3.5 | 0.00 | 0.00 | 0.00 | 33 | 1014.0 |
| 20260510152321 | 79 | 163 | 2.6 | 3.5 | 0.00 | 0.00 | 0.00 | 35 | 1017.0 |
| 20260510151320 | 78 | 163 | 2.6 | 3.5 | 0.00 | 0.00 | 0.00 | 42 | 1017.0 |
| 20260510150319 | 77 | 163 | 2.6 | 3.5 | 0.00 | 0.00 | 0.00 | 37 | 1015.0 |
| 20260510145319 | 76 | 163 | 2.6 | 3.5 | 0.00 | 0.00 | 0.00 | 41 | 1015.0 |
| 20260510144318 | 75 | 163 | 2.6 | 3.5 | 0.00 | 0.00 | 0.00 | 38 | 1015.0 |
| 20260510143317 | 74 | 163 | 2.6 | 3.5 | 0.00 | 0.00 | 0.00 | 38 | 1015.0 |
| 20260510142317 | 75 | 163 | 2.6 | 3.5 | 0.00 | 0.00 | 0.00 | 44 | 1017.0 |
| 20260510141317 | 74 | 163 | 2.6 | 3.5 | 0.00 | 0.00 | 0.00 | 46 | 1017.0 |
| 20260510140316 | 73 | 163 | 2.6 | 3.5 | 0.00 | 0.00 | 0.00 | 48 | 1017.0 |
| 20260510135315 | 72 | 163 | 2.6 | 3.5 | 0.00 | 0.00 | 0.00 | 50 | 1015.0 |
| 20260510134314 | 71 | 163 | 2.6 | 3.5 | 0.00 | 0.00 | 0.00 | 46 | 1014.0 |
| 20260510133314 | 67 | 210 | 7.8 | 0.0 | 0.00 | 0.00 | 0.00 | 72 | 1016.0 |
| 20260510132313 | 66 | 210 | 7.8 | 0.0 | 0.00 | 0.00 | 0.00 | 73 | 1017.0 |
| 20260510131312 | 66 | 210 | 7.8 | 0.0 | 0.00 | 0.00 | 0.00 | 73 | 1017.0 |
| 20260510130312 | 67 | 210 | 5.2 | 0.0 | 0.00 | 0.00 | 0.00 | 74 | 1015.0 |
| 20260510125311 | 64 | 210 | 5.2 | 0.0 | 0.00 | 0.00 | 0.00 | 77 | 1015.0 |
| 20260510124310 | 64 | 210 | 5.2 | 0.0 | 0.00 | 0.00 | 0.00 | 77 | 1015.0 |
| 20260510123310 | 62 | 210 | 5.2 | 0.0 | 0.00 | 0.00 | 0.00 | 76 | 1015.0 |
| 20260510122309 | 62 | 210 | 5.2 | 0.0 | 0.00 | 0.00 | 0.00 | 73 | 1016.0 |
| 20260510121309 | 62 | 130 | 2.6 | 2.6 | 0.00 | 0.00 | 0.00 | 65 | 1016.0 |
| 20260510120308 | 62 | 130 | 2.6 | 2.6 | 0.00 | 0.00 | 0.00 | 67 | 1016.0 |
| 20260510114647 | 62 | 130 | 2.6 | 2.6 | 0.00 | 0.00 | 0.00 | 72 | 1014.0 |
| 20260510113646 | 62 | 130 | 2.6 | 2.6 | 0.00 | 0.00 | 0.00 | 73 | 1014.0 |
| 20260510112645 | 62 | 138 | 3.5 | 3.5 | 0.00 | 0.00 | 0.00 | 74 | 1014.0 |
| 20260510111645 | 62 | 138 | 3.5 | 3.5 | 0.00 | 0.00 | 0.00 | 74 | 1015.0 |
| 20260510110647 | 62 | 138 | 3.5 | 3.5 | 0.00 | 0.00 | 0.00 | 73 | 1015.0 |
| 20260510105644 | 62 | 138 | 3.5 | 3.5 | 0.00 | 0.00 | 0.00 | 74 | 1013.0 |
| 20260510104643 | 63 | 139 | 2.6 | 3.5 | 0.00 | 0.00 | 0.00 | 75 | 1012.0 |
| 20260510103642 | 63 | 139 | 2.6 | 3.5 | 0.00 | 0.00 | 0.00 | 75 | 1012.0 |
| 20260510102642 | 63 | 139 | 2.6 | 3.5 | 0.00 | 0.00 | 0.00 | 73 | 1014.0 |
| 20260510101641 | 62 | 139 | 2.6 | 3.5 | 0.00 | 0.00 | 0.00 | 74 | 1015.0 |
| 20260510100640 | 62 | 139 | 2.6 | 3.5 | 0.00 | 0.00 | 0.00 | 74 | 1015.0 |
| 20260510095640 | 63 | 139 | 2.6 | 3.5 | 0.00 | 0.00 | 0.00 | 73 | 1013.0 |
| 20260510094639 | 63 | 139 | 2.6 | 3.5 | 0.00 | 0.00 | 0.00 | 73 | 1012.0 |
| 20260510093639 | 63 | 139 | 2.6 | 3.5 | 0.00 | 0.00 | 0.00 | 71 | 1012.0 |
| 20260510092638 | 63 | 37 | 2.6 | 2.6 | 0.00 | 0.00 | 0.00 | 72 | 1013.0 |
| 20260510091637 | 64 | 37 | 2.6 | 2.6 | 0.00 | 0.00 | 0.00 | 71 | 1015.0 |
| 20260510090636 | 64 | 37 | 2.6 | 2.6 | 0.00 | 0.00 | 0.00 | 72 | 1013.0 |
| 20260510085636 | 64 | 37 | 2.6 | 2.6 | 0.00 | 0.00 | 0.00 | 72 | 1013.0 |
| 20260510084635 | 64 | 37 | 2.6 | 2.6 | 0.00 | 0.00 | 0.00 | 72 | 1013.0 |
| 20260510083635 | 64 | 37 | 2.6 | 2.6 | 0.00 | 0.00 | 0.00 | 75 | 1013.0 |
| 20260510082634 | 64 | 37 | 2.6 | 2.6 | 0.00 | 0.00 | 0.00 | 71 | 1015.0 |
| 20260510081633 | 64 | 37 | 2.6 | 2.6 | 0.00 | 0.00 | 0.00 | 71 | 1015.0 |
| 20260510080633 | 64 | 37 | 2.6 | 2.6 | 0.00 | 0.00 | 0.00 | 71 | 1015.0 |
| 20260510075632 | 64 | 37 | 2.6 | 2.6 | 0.00 | 0.00 | 0.00 | 71 | 1013.0 |
| 20260510074631 | 64 | 37 | 2.6 | 2.6 | 0.00 | 0.00 | 0.00 | 72 | 1012.0 |
| 20260510073631 | 64 | 37 | 2.6 | 2.6 | 0.00 | 0.00 | 0.00 | 69 | 1012.0 |
| 20260510072630 | 64 | 22 | 2.6 | 1.7 | 0.00 | 0.00 | 0.00 | 70 | 1013.0 |
| 20260510071629 | 65 | 22 | 2.6 | 1.7 | 0.00 | 0.00 | 0.00 | 71 | 1014.0 |
| 20260510070629 | 65 | 30 | 20.0 | 0.0 | 0.00 | 0.00 | 0.00 | 74 | 1013.0 |
| 20260510065628 | 65 | 30 | 20.0 | 0.0 | 0.00 | 0.00 | 0.00 | 74 | 1013.0 |
| 20260510064628 | 66 | 30 | 20.0 | 0.0 | 0.00 | 0.00 | 0.00 | 75 | 1013.0 |
| 20260510063627 | 66 | 30 | 20.0 | 0.0 | 0.00 | 0.00 | 0.00 | 76 | 1013.0 |
| 20260510062626 | 66 | 30 | 20.0 | 0.0 | 0.00 | 0.00 | 0.00 | 76 | 1011.0 |
| 20260510061626 | 66 | 30 | 20.0 | 0.0 | 0.00 | 0.00 | 0.00 | 76 | 1011.0 |
| 20260510060625 | 66 | 30 | 20.0 | 0.0 | 0.00 | 0.00 | 0.00 | 76 | 1011.0 |
| 20260510055624 | 67 | 30 | 20.0 | 0.0 | 0.00 | 0.00 | 0.00 | 75 | 1013.0 |
| 20260510054624 | 67 | 30 | 20.0 | 0.0 | 0.00 | 0.00 | 0.00 | 75 | 1013.0 |
| 20260510053623 | 67 | 30 | 20.0 | 0.0 | 0.00 | 0.00 | 0.00 | 75 | 1013.0 |
| 20260510052623 | 68 | 30 | 20.0 | 0.0 | 0.00 | 0.00 | 0.00 | 74 | 1016.0 |
| 20260510051622 | 68 | 30 | 20.0 | 0.0 | 0.00 | 0.00 | 0.00 | 73 | 1016.0 |
| 20260510050621 | 68 | 30 | 20.0 | 0.0 | 0.00 | 0.00 | 0.00 | 73 | 1014.0 |
| 20260510045621 | 68 | 30 | 20.0 | 0.0 | 0.00 | 0.00 | 0.00 | 73 | 1014.0 |
| 20260510044620 | 68 | 30 | 20.0 | 0.0 | 0.00 | 0.00 | 0.00 | 73 | 1013.0 |
| 20260510043619 | 68 | 30 | 20.0 | 0.0 | 0.00 | 0.00 | 0.00 | 73 | 1013.0 |
| 20260510042618 | 68 | 30 | 20.0 | 0.0 | 0.00 | 0.00 | 0.00 | 73 | 1012.0 |
| 20260510041618 | 68 | 30 | 20.0 | 0.0 | 0.00 | 0.00 | 0.00 | 73 | 1015.0 |
| 20260510040617 | 68 | 30 | 20.0 | 0.0 | 0.00 | 0.00 | 0.00 | 73 | 1013.0 |
| 20260510035617 | 68 | 30 | 20.0 | 0.0 | 0.00 | 0.00 | 0.00 | 73 | 1013.0 |
| 20260510034616 | 68 | 30 | 20.0 | 0.0 | 0.00 | 0.00 | 0.00 | 72 | 1013.0 |
| 20260510033615 | 69 | 30 | 20.0 | 0.0 | 0.00 | 0.00 | 0.00 | 81 | 1015.0 |
| 20260510032614 | 69 | 30 | 20.0 | 0.0 | 0.00 | 0.00 | 0.00 | 81 | 1015.0 |
| 20260510031614 | 69 | 30 | 20.0 | 0.0 | 0.00 | 0.00 | 0.00 | 80 | 1015.0 |
| 20260510030613 | 70 | 30 | 20.0 | 0.0 | 0.00 | 0.00 | 0.00 | 77 | 1015.0 |
| 20260510025612 | 70 | 30 | 20.0 | 0.0 | 0.00 | 0.00 | 0.00 | 69 | 1013.0 |
| 20260510024612 | 70 | 30 | 20.0 | 0.0 | 0.00 | 0.00 | 0.00 | 67 | 1013.0 |
| 20260510023611 | 70 | 30 | 20.0 | 0.0 | 0.00 | 0.00 | 0.00 | 66 | 1013.0 |
| 20260510022611 | 72 | 30 | 20.0 | 0.0 | 0.00 | 0.00 | 0.00 | 77 | 1012.0 |
| 20260510021610 | 72 | 30 | 20.0 | 0.0 | 0.00 | 0.00 | 0.00 | 76 | 1012.0 |
| 20260510020610 | 72 | 30 | 20.0 | 0.0 | 0.00 | 0.00 | 0.00 | 73 | 1012.0 |
| 20260510015609 | 72 | 30 | 20.0 | 0.0 | 0.00 | 0.00 | 0.00 | 63 | 1012.0 |
| 20260510014608 | 73 | 30 | 20.0 | 0.0 | 0.00 | 0.00 | 0.00 | 59 | 1012.0 |
| 20260510013608 | 74 | 30 | 20.0 | 0.0 | 0.00 | 0.00 | 0.00 | 57 | 1012.0 |
| 20260510012607 | 78 | 30 | 20.0 | 0.0 | 0.00 | 0.00 | 0.00 | 44 | 1011.0 |
| 20260510011606 | 78 | 30 | 20.0 | 0.0 | 0.00 | 0.00 | 0.00 | 44 | 1011.0 |
| 20260510010606 | 80 | 300 | 15.6 | 0.0 | 0.00 | 0.00 | 0.00 | 43 | 1011.0 |
| 20260510005605 | 78 | 300 | 15.6 | 0.0 | 0.00 | 0.00 | 0.00 | 12 | 1011.0 |
| 20260510004604 | 80 | 300 | 15.6 | 0.0 | 0.00 | 0.00 | 0.00 | 12 | 1011.0 |
| 20260510003604 | 82 | 300 | 15.6 | 0.0 | 0.00 | 0.00 | 0.00 | 12 | 1011.0 |
| 20260510002603 | 84 | 300 | 15.6 | 0.0 | 0.00 | 0.00 | 0.00 | 12 | 1008.0 |
| 20260510001602 | 84 | 300 | 15.6 | 0.0 | 0.00 | 0.00 | 0.00 | 12 | 1008.0 |
| 20260510000601 | 84 | 300 | 15.6 | 0.0 | 0.00 | 0.00 | 0.00 | 12 | 1008.0 |
| 20260509235601 | 84 | 300 | 15.6 | 0.0 | 0.00 | 0.00 | 0.00 | 10 | 1008.0 |
| 20260509234601 | 84 | 300 | 15.6 | 0.0 | 0.00 | 0.00 | 0.00 | 10 | 1008.0 |
| 20260509233600 | 84 | 300 | 15.6 | 0.0 | 0.00 | 0.00 | 0.00 | 10 | 1008.0 |
| 20260509232559 | 84 | 300 | 15.6 | 0.0 | 0.00 | 0.00 | 0.00 | 11 | 1008.0 |
| 20260509231558 | 84 | 300 | 15.6 | 0.0 | 0.00 | 0.00 | 0.00 | 11 | 1008.0 |
| 20260509230558 | 84 | 300 | 15.6 | 0.0 | 0.00 | 0.00 | 0.00 | 12 | 1008.0 |
| 20260509225557 | 85 | 300 | 15.6 | 0.0 | 0.00 | 0.00 | 0.00 | 13 | 1008.0 |
| 20260509224556 | 84 | 300 | 16.5 | 0.0 | 0.00 | 0.00 | 0.00 | 16 | 1008.0 |
| 20260509223556 | 84 | 300 | 16.5 | 0.0 | 0.00 | 0.00 | 0.00 | 16 | 1008.0 |
| 20260509222555 | 84 | 300 | 16.5 | 0.0 | 0.00 | 0.00 | 0.00 | 16 | 1008.0 |
| 20260509221554 | 83 | 300 | 16.5 | 0.0 | 0.00 | 0.00 | 0.00 | 17 | 1008.0 |
| 20260509220554 | 83 | 300 | 16.5 | 0.0 | 0.00 | 0.00 | 0.00 | 16 | 1008.0 |
| 20260509215553 | 83 | 270 | 15.6 | 0.0 | 0.00 | 0.00 | 0.00 | 15 | 1008.0 |
| 20260509214553 | 83 | 270 | 15.6 | 0.0 | 0.00 | 0.00 | 0.00 | 15 | 1008.0 |
| 20260509213552 | 83 | 270 | 15.6 | 0.0 | 0.00 | 0.00 | 0.00 | 16 | 1008.0 |
| 20260509212551 | 83 | 270 | 15.6 | 0.0 | 0.00 | 0.00 | 0.00 | 16 | 1009.0 |
| 20260509211551 | 83 | 270 | 15.6 | 0.0 | 0.00 | 0.00 | 0.00 | 17 | 1009.0 |
| 20260509210550 | 84 | 10 | 7.0 | 0.0 | 0.00 | 0.00 | 0.00 | 17 | 1009.0 |
| 20260509205549 | 84 | 10 | 7.0 | 0.0 | 0.00 | 0.00 | 0.00 | 17 | 1009.0 |
| 20260509204549 | 83 | 10 | 7.0 | 0.0 | 0.00 | 0.00 | 0.00 | 18 | 1009.0 |
| 20260509203548 | 83 | 10 | 7.0 | 0.0 | 0.00 | 0.00 | 0.00 | 17 | 1009.0 |
| 20260509202548 | 83 | 10 | 7.0 | 0.0 | 0.00 | 0.00 | 0.00 | 16 | 1010.0 |
| 20260509201547 | 83 | 10 | 7.0 | 0.0 | 0.00 | 0.00 | 0.00 | 16 | 1010.0 |
| 20260509200546 | 83 | 10 | 7.0 | 0.0 | 0.00 | 0.00 | 0.00 | 15 | 1010.0 |
| 20260509195545 | 83 | 10 | 7.0 | 0.0 | 0.00 | 0.00 | 0.00 | 15 | 1010.0 |
| 20260509194544 | 83 | 10 | 7.0 | 0.0 | 0.00 | 0.00 | 0.00 | 22 | 1010.0 |
| 20260509193544 | 83 | 10 | 7.0 | 0.0 | 0.00 | 0.00 | 0.00 | 24 | 1010.0 |